Altus AFB, OK

3:40 AM CDT on August 17, 2017 (GMT -0500)
Altus Air Force Base

Weather History for KLTS - June, 2013

Change the Weather History Date:

Sunday, June 30, 2013

  Actual Average Record
Temperature  
Mean Temperature 82 °F -  
Max Temperature 94 °F 91 °F 104 °F (1998)
Min Temperature 71 °F 69 °F 60 °F (2008)
Cooling Degree Days 17    
Growing Degree Days 32 (Base 50)    
Moisture  
Dew Point 53 °F    
Average Humidity 38    
Maximum Humidity 64    
Minimum Humidity 23    
Precipitation  
Precipitation 0.00 in - - ()
Sea Level Pressure  
Sea Level Pressure 29.95 in    
Wind  
Wind Speed 12 mph (NNE)    
Max Wind Speed 21 mph    
Max Gust Speed 28 mph    
Visibility 10 miles    
Events      
Averages and records for this station are not official NWS values.
T = Trace of Precipitation, MM = Missing Value Source: NWS Daily Summary

Daily Weather History Graph

Daily Weather History Graph

Search for Another Location

Airport or City:

Trip Planner

Search our weather history database for the weather conditions in past years. The results will help you decide how hot, cold, wet, or windy it might be!

Date:

Astronomy

Jun. 30, 2013 Rise Set
Actual Time 6:27 AM CDT 8:54 PM CDT
Civil Twilight 5:57 AM CDT 9:23 PM CDT
Nautical Twilight 5:21 AM CDT 9:59 PM CDT
Astronomical Twilight 4:41 AM CDT 10:39 PM CDT
Moon 1:14 AM CDT (6/30) 2:20 PM CDT (6/30)
Length of Visible Light 15h 25m
Length of Day
14h 26m
Last Quarter, 45% of the Moon is Illuminated
Jun 30
Last Quarter
Jul 8
New
Jul 15
First Quarter
Jul 22
Full
Jul 29
Last Quarter

Hourly Weather History & Observations

Time (CDT) Temp. Heat Index Dew Point Humidity Pressure Visibility Wind Dir Wind Speed Gust Speed Precip Events Conditions
12:58 AM 74.3 °F - 58.6 °F 58% 29.88 in 10.0 mi North 6.9 mph - N/A   Clear
1:58 AM 73.6 °F - 58.6 °F 59% 29.88 in 10.0 mi NNE 8.1 mph - N/A   Clear
2:58 AM 74.8 °F - 59.0 °F 58% 29.91 in 10.0 mi NNE 11.5 mph - N/A   Clear
3:58 AM 74.8 °F - 57.6 °F 55% 29.93 in 10.0 mi NNE 10.4 mph - N/A   Mostly Cloudy
4:28 AM 75.2 °F - 55.4 °F 50% 29.99 in 10.0 mi NE 13.8 mph - N/A   Light Drizzle
4:46 AM 73.4 °F - 59.0 °F 61% 29.99 in 10.0 mi NE 13.8 mph - N/A   Overcast
4:58 AM 73.2 °F - 58.8 °F 61% 29.94 in 10.0 mi NE 10.4 mph - 0.00 in   Overcast
5:58 AM 71.2 °F - 58.3 °F 64% 29.97 in 10.0 mi WNW 4.6 mph - N/A   Overcast
7:58 AM 75.9 °F - 57.2 °F 52% 29.97 in 10.0 mi NNE 10.4 mph - N/A   Mostly Cloudy
8:58 AM 79.2 °F - 55.0 °F 43% 29.97 in 10.0 mi NNE 15.0 mph - N/A   Clear
9:58 AM 82.8 °F 81.9 °F 55.0 °F 38% 29.97 in 10.0 mi NE 13.8 mph - N/A   Partly Cloudy
10:58 AM 85.1 °F - 52.5 °F 32% 29.98 in 10.0 mi NNE 11.5 mph - N/A   Clear
11:58 AM 87.6 °F - 51.8 °F 29% 29.97 in 10.0 mi North 16.1 mph 25.3 mph N/A   Clear
12:20 PM 89.6 °F - 51.8 °F 27% 30.02 in 10.0 mi NE 17.3 mph 21.9 mph N/A   Partly Cloudy
12:58 PM 89.1 °F - 51.6 °F 28% 29.96 in 10.0 mi NNE 20.7 mph 26.5 mph N/A   Clear
1:12 PM 89.6 °F - 51.8 °F 27% 30.00 in 10.0 mi NE 16.1 mph 21.9 mph N/A   Scattered Clouds
1:58 PM 91.4 °F - 52.3 °F 26% 29.96 in 10.0 mi North 15.0 mph 21.9 mph N/A   Scattered Clouds
2:10 PM 91.4 °F - 51.8 °F 26% 30.00 in 10.0 mi North 15.0 mph 27.6 mph N/A   Mostly Cloudy
2:30 PM 91.4 °F - 51.8 °F 26% 29.99 in 10.0 mi NNE 16.1 mph 24.2 mph N/A   Mostly Cloudy
2:58 PM 90.5 °F - 51.6 °F 26% 29.94 in 10.0 mi North 12.7 mph 21.9 mph N/A   Partly Cloudy
3:58 PM 93.2 °F - 51.8 °F 24% 29.91 in 10.0 mi NNE 18.4 mph 23.0 mph N/A   Clear
4:01 PM 93.2 °F - 51.8 °F 24% 29.95 in 10.0 mi North 15.0 mph 23.0 mph N/A   Partly Cloudy
4:21 PM 93.2 °F - 50.0 °F 23% 29.95 in 10.0 mi NNE 16.1 mph 25.3 mph N/A   Clear
4:58 PM 93.2 °F - 50.9 °F 24% 29.89 in 10.0 mi North 16.1 mph 21.9 mph N/A   Partly Cloudy
5:05 PM 93.2 °F - 50.0 °F 23% 29.94 in 10.0 mi NE 16.1 mph 24.2 mph N/A   Clear
5:58 PM 92.7 °F - 49.3 °F 23% 29.89 in 10.0 mi North 10.4 mph - N/A   Partly Cloudy
6:58 PM 90.0 °F - 50.4 °F 26% 29.94 in 10.0 mi North 9.2 mph 21.9 mph N/A   Clear
7:58 PM 88.9 °F - 49.3 °F 26% 29.89 in 10.0 mi NE 15.0 mph - N/A   Clear
8:58 PM 83.3 °F - 51.3 °F 33% 29.92 in 10.0 mi NE 11.5 mph - N/A   Clear
9:58 PM 80.1 °F - 50.5 °F 36% 29.96 in 10.0 mi NE 9.2 mph - N/A   Clear
10:58 PM 73.8 °F - 51.1 °F 45% 29.98 in 10.0 mi NNE 6.9 mph - N/A   Partly Cloudy
11:58 PM 72.0 °F - 51.4 °F 48% 30.00 in 10.0 mi NE 9.2 mph - N/A   Clear